This demonstration page uses our WeatherBlox Daily Observations layout. Learn more.

Left ArrowRight Arrow

40.97296, -117.73568

Hourly Observations for August 24, 2022

Temp ( °F °C ) Dew Point ( °F °C ) Humidity (%) Winds ( mph kmh ) Pressure ( in mb ) Visibility ( mi km ) Precip ( " mm )
12:56 am 00:56 Clear 59 15 25 -3.9 27 27 ESE 6 9 29.80 1009 10 16 0.00 0.00
1:56 am 01:56 Clear 55 12.8 24 -4.4 30 30 SE 3 6 29.80 1009 10 16 0.00 0.00
2:56 am 02:56 Clear 55 12.8 25 -3.9 31 31 S 5 7 29.82 1010 10 16 0.00 0.00
3:56 am 03:56 Clear 50 10 26 -3.3 39 39 SSW 6 9 29.83 1010 10 16 0.00 0.00
4:56 am 04:56 Clear 55 12.8 24 -4.4 30 30 Calm 29.83 1010 10 16 0.00 0.00
5:56 am 05:56 Clear 48 8.9 22 -5.6 35 35 VRB 3 6 29.85 1011 10 16 0.00 0.00
6:56 am 06:56 Sunny 49 9.4 22 -5.6 34 34 W 6 9 29.87 1012 10 16 0.00 0.00
7:56 am 07:56 Sunny 57 13.9 27 -2.8 31 31 S 10 17 29.91 1013 10 16 0.00 0.00
8:56 am 08:56 Sunny 72 22.2 31 -0.6 22 22 NE 3 6 29.87 1012 10 16 0.00 0.00
9:56 am 09:56 Sunny 80 26.7 29 -1.7 15 15 Calm 29.87 1011 10 16 0.00 0.00
10:56 am 10:56 Sunny 85 29.4 32 0 15 15 ENE 12 19 29.84 1011 10 16 0.00 0.00
11:56 am 11:56 Sunny 90 32.2 30 -1.1 12 12 ENE 6 9 29.84 1010 10 16 0.00 0.00
12:56 pm 12:56 Sunny 97 36.1 27 -2.8 8 8 SSW 14 22 29.81 1010 10 16 0.00 0.00
1:56 pm 13:56 Sunny 98 36.7 24 -4.4 7 7 SW 13 20 29.79 1009 10 16 0.00 0.00
2:56 pm 14:56 Sunny 98 36.7 19 -7.2 6 6 WSW 16 26 29.77 1008 9 14 0.00 0.00
3:56 pm 15:56 Sunny 97 36.1 19 -7.2 6 6 SW 9 15 29.77 1008 10 16 0.00 0.00
4:56 pm 16:56 Sunny 97 36.1 19 -7.2 6 6 undefined N/A 29.76 1008 10 16 0.00 0.00
5:56 pm 17:56 Sunny 95 35 17 -8.3 6 6 W 17 28 29.78 1009 10 16 0.00 0.00
6:56 pm 18:56 Sunny 91 32.8 18 -7.8 7 7 WNW 12 19 29.80 1009 10 16 0.00 0.00
7:56 pm 19:56 Clear 78 25.6 19 -7.2 11 11 WSW 7 11 29.83 1010 10 16 0.00 0.00
8:56 pm 20:56 Clear 69 20.6 20 -6.7 15 15 SSE 7 11 29.83 1010 10 16 0.00 0.00
9:56 pm 21:56 Clear 69 20.6 22 -5.6 17 17 E 5 7 29.83 1010 10 16 0.00 0.00
10:56 pm 22:56 Clear 64 17.8 26 -3.3 23 23 Calm 29.84 1011 10 16 0.00 0.00
11:56 pm 23:56 Clear 60 15.6 24 -4.4 25 25 SSE 7 11 29.85 1011 10 16 0.00 0.00

Powered by AerisWeather